Weather History for Baltimore, MD

Change the Weather History Date:

Tuesday, May 13, 2014

  Actual Average Record
Temperature  
Mean Temperature 72 °F 62 °F  
Max Temperature 86 °F 73 °F 95 °F (1881)
Min Temperature 58 °F 51 °F 36 °F (1963)
Degree Days  
Heating Degree Days 0 5  
Month to date heating degree days 37 77  
Since 1 July heating degree days 4967 4692  
Cooling Degree Days 7 2  
Month to date cooling degree days 31 16  
Year to date cooling degree days 38 30  
Growing Degree Days 23 (Base 50)    
Moisture  
Dew Point 63 °F    
Average Humidity 71    
Maximum Humidity 93    
Minimum Humidity 48    
Precipitation  
Precipitation 0.00 in 0.13 in 1.73 in (1897)
Month to date precipitation 0.76 1.57  
Year to date precipitation 21.03 14.61  
Snow  
Snow 0.00 in 0.00 in - ()
Month to date snowfall 0.0 0.0  
Since 1 July snowfall 39.0 20.1  
Snow Depth 0.00 in    
Sea Level Pressure  
Sea Level Pressure 30.10 in    
Wind  
Wind Speed 7 mph (East)    
Max Wind Speed 21 mph    
Max Gust Speed 24 mph    
Visibility 9 miles    
Events      
T = Trace of Precipitation, MM = Missing Value Source: NWS Daily Summary

Daily Weather History Graph

Daily Weather History Graph

Search for Another Location

Airport:

Trip Planner

Search our weather history database for the weather conditions in past years. The results will help you decide how hot, cold, wet, or windy it might be!

Date:

Astronomy

May. 13, 2014 Rise Set
Actual Time 5:55 AM EDT 8:11 PM EDT
Civil Twilight 5:25 AM EDT 8:41 PM EDT
Nautical Twilight 4:48 AM EDT 9:18 PM EDT
Astronomical Twilight 4:08 AM EDT 9:58 PM EDT
Moon 7:11 PM EDT (5/13) 5:09 AM EDT (5/13)
Length of Visible Light 15h 15m
Length of Day
14h 15m
Waxing Gibbous, 98% of the Moon is Illuminated
May 13
Waxing Gibbous
May 14
Full
May 21
Last Quarter
May 28
New
Jun 5
First Quarter

Hourly Weather History & Observations

Time (EDT) Temp. Heat Index Dew Point Humidity Pressure Visibility Wind Dir Wind Speed Gust Speed Precip Events Conditions
12:54 AM 70.0 °F - 66.0 °F 87% 30.06 in 10.0 mi Calm Calm - N/A   Scattered Clouds
1:54 AM 66.2 °F - 64.4 °F 94% 30.06 in 10.0 mi Calm Calm - N/A   Partly Cloudy
2:54 AM 66.0 °F - 64.0 °F 93% 30.04 in 10.0 mi Calm Calm - N/A   Scattered Clouds
3:54 AM 66.0 °F - 64.9 °F 96% 30.04 in 10.0 mi WSW 3.5 mph - N/A   Scattered Clouds
4:54 AM 66.0 °F - 64.0 °F 93% 30.05 in 9.0 mi Calm Calm - N/A   Partly Cloudy
5:54 AM 68.0 °F - 64.0 °F 87% 30.06 in 10.0 mi West 5.8 mph - N/A   Scattered Clouds
6:54 AM 69.1 °F - 64.9 °F 87% 30.05 in 10.0 mi Calm Calm - N/A   Scattered Clouds
7:54 AM 73.9 °F - 64.9 °F 73% 30.06 in 10.0 mi Calm Calm - N/A   Scattered Clouds
8:54 AM 78.8 °F - 64.4 °F 61% 30.09 in 10.0 mi Variable 4.6 mph - N/A   Scattered Clouds
9:54 AM 81.0 °F 82.2 °F 63.0 °F 54% 30.10 in 10.0 mi NNW 3.5 mph - N/A   Scattered Clouds
10:54 AM 82.9 °F 84.4 °F 64.0 °F 53% 30.10 in 10.0 mi Variable 4.6 mph - N/A   Scattered Clouds
11:54 AM 84.2 °F 85.6 °F 64.4 °F 51% 30.11 in 10.0 mi NW 6.9 mph - N/A   Scattered Clouds
12:54 PM 84.0 °F 85.4 °F 64.0 °F 51% 30.11 in 10.0 mi East 6.9 mph - N/A   Scattered Clouds
1:54 PM 84.9 °F 87.1 °F 66.0 °F 53% 30.10 in 10.0 mi ENE 8.1 mph - N/A   Scattered Clouds
2:54 PM 86.0 °F 87.3 °F 64.0 °F 48% 30.09 in 10.0 mi East 9.2 mph - N/A   Scattered Clouds
3:54 PM 84.0 °F 86.5 °F 66.9 °F 56% 30.08 in 9.0 mi East 13.8 mph - N/A   Scattered Clouds
4:54 PM 84.9 °F 88.2 °F 68.0 °F 57% 30.08 in 8.0 mi East 12.7 mph - N/A   Scattered Clouds
5:54 PM 80.1 °F 81.5 °F 63.0 °F 56% 30.09 in 10.0 mi East 17.3 mph - N/A   Scattered Clouds
6:54 PM 77.0 °F - 61.0 °F 58% 30.12 in 8.0 mi East 12.7 mph - N/A   Scattered Clouds
7:54 PM 72.0 °F - 59.0 °F 64% 30.14 in 8.0 mi East 12.7 mph - N/A   Scattered Clouds
8:54 PM 68.0 °F - 57.9 °F 70% 30.18 in 8.0 mi ESE 6.9 mph - N/A   Scattered Clouds
9:54 PM 64.0 °F - 57.0 °F 78% 30.17 in 9.0 mi East 13.8 mph - N/A   Mostly Cloudy
10:54 PM 62.1 °F - 55.0 °F 78% 30.19 in 7.0 mi ESE 6.9 mph - N/A   Mostly Cloudy
11:30 PM 60.8 °F - 55.4 °F 82% 30.21 in 7.0 mi ESE 10.4 mph - N/A   Mostly Cloudy
11:42 PM 60.8 °F - 55.4 °F 82% 30.20 in 10.0 mi East 10.4 mph - N/A   Mostly Cloudy
11:54 PM 59.0 °F - 55.0 °F 87% 30.20 in 8.0 mi East 11.5 mph - N/A   Mostly Cloudy